Date String (YYYY-MM-DD hh:mm:ss) UTC,Instrument flags,Ambient pressure (hPa),Sample flow (lpm),Bypass flow (lpm),Sample temperature (°C),Ambient temperature (°C),ASC tube jacket temperature (°C),LED temperature (°C),Box temperature (°C),Sample RH (%),Span deviation,Mass concentration (μg/m³),Mass concentration (μg/m³),Mass concentration (μg/m³)
DateTimeUTC,F1_M11,P_M11,Q1_M11,Q2_M11,T1_M11,T2_M11,T3_M11,T4_M11,T5_M11,U1_M11,ZSPAN_M11,X0_M11,X2_M11,X1_M11
2022-04-04 11:00:00,,0821.0,4.99,0.00,23.1,22.3,00.0,32.1,24.9,13.6,0000.0,0017.92,0006.40,0004.37
2022-04-04 11:01:00,,0821.0,5.00,0.00,23.1,22.3,00.0,32.1,24.9,13.6,0000.0,0017.56,0006.39,0004.37
2022-04-04 11:02:00,,0821.0,5.01,0.00,23.1,22.3,00.0,32.1,24.9,13.6,0000.0,0018.01,0006.49,0004.37
2022-04-04 11:03:00,,0821.0,5.00,0.00,23.1,22.3,00.0,32.1,24.9,13.6,0000.0,0017.01,0006.48,0004.37
2022-04-04 11:04:00,,0821.0,5.01,0.00,23.1,22.3,00.0,32.1,24.9,13.6,0000.0,0015.78,0006.37,0004.35
2022-04-04 11:05:00,,0821.0,5.00,0.00,23.1,22.3,00.0,32.1,24.9,13.6,0000.0,0015.61,0006.33,0004.35
2022-04-04 11:06:00,,0821.0,4.98,0.00,23.1,22.4,00.0,32.1,24.9,13.6,0000.0,0016.32,0006.37,0004.36
2022-04-04 11:07:00,,0821.0,5.00,0.00,23.1,22.4,00.0,32.1,24.9,13.6,0000.0,0016.33,0006.34,0004.36
2022-04-04 11:08:00,,0821.0,5.01,0.00,23.1,22.4,00.0,32.1,24.9,13.6,0000.0,0015.57,0006.32,0004.36
2022-04-04 11:09:00,,0821.0,5.01,0.00,23.1,22.4,00.0,32.1,24.9,13.6,0000.0,0015.04,0006.24,0004.35
2022-04-04 11:10:00,,0821.0,5.00,0.00,23.1,22.3,00.0,32.1,24.9,13.6,0000.0,0014.98,0006.27,0004.35
2022-04-04 11:11:00,,0821.0,5.00,0.00,23.0,22.2,00.0,32.1,24.8,13.6,-000.7,0014.73,0006.26,0004.35
2022-04-04 11:12:00,,0821.0,5.00,0.00,23.0,22.2,00.0,32.1,24.8,13.6,-000.6,0015.63,0006.22,0004.35
2022-04-04 11:13:00,,0821.0,5.00,0.00,23.0,22.2,00.0,32.0,24.7,13.6,0000.3,0016.63,0006.19,0004.34
2022-04-04 11:14:00,,0820.9,5.00,0.00,23.0,22.1,00.0,32.0,24.7,13.6,0000.1,0017.48,0006.20,0004.34
2022-04-04 11:15:00,,0820.9,5.00,0.00,22.9,22.1,00.0,32.0,24.7,13.6,0000.3,0017.70,0006.20,0004.33
2022-04-04 11:16:00,,0820.8,5.00,0.00,22.9,22.0,00.0,32.0,24.7,13.6,0000.7,0017.72,0006.18,0004.32
2022-04-04 11:17:00,,0820.8,4.99,0.00,22.9,22.0,00.0,32.0,24.6,13.7,0000.0,0017.00,0006.11,0004.29
2022-04-04 11:18:00,,0820.8,5.00,0.00,22.9,22.0,00.0,32.0,24.6,13.7,0000.0,0016.62,0006.10,0004.29
2022-04-04 11:19:00,,0820.9,5.00,0.00,22.9,22.0,00.0,32.0,24.6,13.7,0000.0,0017.08,0006.18,0004.29
2022-04-04 11:20:00,,0820.8,5.00,0.00,22.8,22.0,00.0,32.0,24.6,13.7,0000.0,0017.83,0006.24,0004.30
2022-04-04 11:21:00,,0820.8,5.00,0.00,22.8,22.0,00.0,31.9,24.6,13.7,0000.0,0018.59,0006.29,0004.31
2022-04-04 11:22:00,,0820.8,4.99,0.00,22.8,22.0,00.0,31.9,24.6,13.8,0000.0,0018.82,0006.36,0004.33
2022-04-04 11:23:00,,0820.9,5.01,0.00,22.8,21.9,00.0,31.9,24.6,13.8,0000.0,0017.83,0006.40,0004.35
2022-04-04 11:24:00,,0820.9,5.00,0.00,22.8,22.0,00.0,31.9,24.6,13.8,0000.0,0016.58,0006.36,0004.35
2022-04-04 11:25:00,,0820.8,5.00,0.00,22.8,22.0,00.0,31.9,24.6,13.8,0000.0,0015.53,0006.31,0004.34
2022-04-04 11:26:00,,0820.9,5.01,0.00,22.8,22.0,00.0,31.9,24.6,13.8,0000.0,0015.62,0006.37,0004.35
2022-04-04 11:27:00,,0820.9,4.99,0.00,22.8,22.0,00.0,31.9,24.6,13.8,0000.0,0016.55,0006.48,0004.38
2022-04-04 11:28:00,,0820.9,5.00,0.00,22.8,22.0,00.0,31.9,24.6,13.8,0000.0,0017.09,0006.53,0004.40
2022-04-04 11:29:00,,0820.9,5.00,0.00,22.8,22.0,00.0,31.8,24.6,13.8,0000.0,0017.02,0006.57,0004.39
2022-04-04 11:30:00,,0820.8,5.00,0.00,22.8,21.9,00.0,31.8,24.5,13.9,0000.0,0017.00,0006.55,0004.39
2022-04-04 11:31:00,,0820.8,5.00,0.00,22.7,21.9,00.0,31.8,24.5,13.9,0000.0,0017.59,0006.51,0004.38
2022-04-04 11:32:00,,0820.8,5.00,0.00,22.7,21.9,00.0,31.8,24.5,13.9,0000.0,0017.43,0006.44,0004.37
2022-04-04 11:33:00,,0820.8,5.00,0.00,22.7,21.9,00.0,31.8,24.5,13.9,0000.0,0017.28,0006.35,0004.34
2022-04-04 11:34:00,,0820.8,5.00,0.00,22.7,21.9,00.0,31.8,24.5,13.9,0000.0,0017.42,0006.34,0004.32
2022-04-04 11:35:00,,0820.8,5.00,0.00,22.7,21.8,00.0,31.8,24.5,14.0,0000.0,0017.38,0006.39,0004.34
2022-04-04 11:36:00,,0820.8,5.00,0.00,22.7,21.8,00.0,31.8,24.4,14.1,0000.0,0017.79,0006.46,0004.35
2022-04-04 11:37:00,,0820.8,5.01,0.00,22.7,21.8,00.0,31.8,24.4,14.0,0000.0,0018.27,0006.49,0004.36
2022-04-04 11:38:00,,0820.8,5.00,0.00,22.7,21.8,00.0,31.7,24.4,14.0,0000.0,0018.40,0006.53,0004.35
2022-04-04 11:39:00,,0820.8,5.00,0.00,22.6,21.8,00.0,31.7,24.4,14.0,0000.0,0018.11,0006.52,0004.35
2022-04-04 11:40:00,,0820.9,5.01,0.00,22.6,21.8,00.0,31.7,24.4,14.0,0000.0,0018.26,0006.50,0004.37
2022-04-04 11:41:00,,0820.9,5.00,0.00,22.6,21.8,00.0,31.7,24.5,13.9,0000.0,0018.27,0006.48,0004.37
2022-04-04 11:42:00,,0820.9,4.99,0.00,22.7,21.9,00.0,31.7,24.5,14.0,0000.0,0017.19,0006.47,0004.38
2022-04-04 11:43:00,,0820.9,5.00,0.00,22.7,21.9,00.0,31.7,24.5,14.0,0000.0,0016.50,0006.46,0004.38
2022-04-04 11:44:00,,0820.9,5.00,0.00,22.7,21.9,00.0,31.7,24.5,14.1,0000.0,0015.99,0006.51,0004.39
2022-04-04 11:45:00,,0820.8,5.00,0.00,22.7,21.9,00.0,31.7,24.5,13.9,0000.0,0015.87,0006.51,0004.38
2022-04-04 11:46:00,,0820.9,4.99,0.00,22.7,21.9,00.0,31.7,24.5,13.9,0000.0,0015.76,0006.49,0004.36
2022-04-04 11:47:00,,0820.8,5.01,0.00,22.7,21.9,00.0,31.7,24.5,13.8,0000.0,0016.00,0006.46,0004.33
2022-04-04 11:48:00,,0820.8,5.00,0.00,22.7,21.9,00.0,31.7,24.5,13.8,0000.0,0015.54,0006.45,0004.31
2022-04-04 11:49:00,,0820.8,5.00,0.00,22.7,21.9,00.0,31.7,24.5,13.8,0000.0,0014.35,0006.29,0004.28
2022-04-04 11:50:00,,0820.9,5.00,0.00,22.7,21.9,00.0,31.7,24.5,13.8,0000.0,0014.77,0006.26,0004.26
2022-04-04 11:51:00,,0820.9,5.00,0.00,22.7,21.9,00.0,31.7,24.5,13.9,0000.0,0014.48,0006.26,0004.25
2022-04-04 11:52:00,,0820.8,5.00,0.00,22.7,21.9,00.0,31.7,24.5,13.9,0000.0,0014.30,0006.22,0004.24
2022-04-04 11:53:00,,0820.9,5.00,0.00,22.7,21.9,00.0,31.7,24.5,13.9,0000.0,0014.22,0006.25,0004.24
2022-04-04 11:54:00,,0820.9,5.00,0.00,22.7,21.9,00.0,31.7,24.5,13.9,0000.0,0014.96,0006.26,0004.24
2022-04-04 11:55:00,,0820.9,5.00,0.00,22.7,21.9,00.0,31.7,24.5,13.9,0000.0,0015.19,0006.23,0004.23
2022-04-04 11:56:00,,0820.9,5.00,0.00,22.7,22.0,00.0,31.7,24.6,13.9,0000.0,0015.15,0006.20,0004.24
2022-04-04 11:57:00,,0820.8,5.00,0.00,22.7,22.0,00.0,31.7,24.6,13.7,0000.0,0014.94,0006.15,0004.27
2022-04-04 11:58:00,,0820.8,5.00,0.00,22.7,22.0,00.0,31.7,24.6,13.8,0000.0,0014.71,0006.09,0004.27
2022-04-04 11:59:00,,0820.8,5.01,0.00,22.8,22.0,00.0,31.7,24.6,13.8,0000.0,0015.38,0006.09,0004.28
